When you browse on this site, cookies collect data to enhance your experience and personalize the content and advertising you see.
Visit our Privacy Policy to learn more. By continuing to use the site, you agree to this use of cookies and data.
  • Em Portugal
  • Lista de países
  • Para 7 dias
  • Temperatura da água
  • Mapa do tempo
  • Widgets de tempo
  • user-avatar
    Iniciar Sessão

    Previsão horária em Evlakh

    Hoje, 24 Fevereiro, Segunda-feira

    Tempo Temperatura Precipitação Vento Pressão Humidade
    00:00 +11°C° 0 mm 3 m/s 763 mmHg 58%
    01:00 +10°C° 0 mm 2 m/s 763 mmHg 64%
    02:00 +9°C° 0 mm 2 m/s 763 mmHg 69%
    03:00 +9°C° 0 mm 2 m/s 762 mmHg 74%
    04:00 +8°C° 0 mm 2 m/s 762 mmHg 80%
    05:00 +7°C° 0 mm 2 m/s 762 mmHg 85%
    06:00 +7°C° 0 mm 2 m/s 762 mmHg 91%
    07:00 +8°C° 0 mm 2 m/s 762 mmHg 87%
    08:00 +8°C° 0 mm 2 m/s 761 mmHg 84%
    09:00 +9°C° 0 mm 2 m/s 761 mmHg 80%
    10:00 +11°C° 0 mm 1 m/s 760 mmHg 73%
    11:00 +13°C° 0 mm 1 m/s 759 mmHg 65%
    12:00 +14°C° 0 mm 1 m/s 758 mmHg 58%
    13:00 +15°C° 0 mm 1 m/s 757 mmHg 54%
    14:00 +15°C° 0 mm 1 m/s 757 mmHg 49%
    15:00 +16°C° 0 mm 1 m/s 756 mmHg 45%
    16:00 +15°C° 0 mm 1 m/s 755 mmHg 46%
    17:00 +15°C° 0 mm 1 m/s 755 mmHg 48%
    18:00 +14°C° 0 mm 1 m/s 755 mmHg 50%
    19:00 +14°C° 0 mm 1 m/s 755 mmHg 51%
    20:00 +13°C° 0 mm 1 m/s 754 mmHg 52%
    21:00 +13°C° 0 mm 1 m/s 754 mmHg 53%
    22:00 +12°C° 0 mm 2 m/s 754 mmHg 52%
    23:00 +12°C° 0 mm 2 m/s 753 mmHg 52%

    Amanhã, 25 Fevereiro, Terça-feira

    Tempo Temperatura Precipitação Vento Pressão Humidade
    00:00 +11°C° 0 mm 3 m/s 753 mmHg 52%
    01:00 +11°C° 0 mm 3 m/s 752 mmHg 51%
    02:00 +11°C° 0 mm 3 m/s 752 mmHg 50%
    03:00 +10°C° 0 mm 4 m/s 752 mmHg 50%
    04:00 +10°C° 0 mm 4 m/s 752 mmHg 49%
    05:00 +10°C° 0 mm 4 m/s 752 mmHg 49%
    06:00 +9°C° 0 mm 5 m/s 752 mmHg 48%
    07:00 +10°C° 0 mm 8 m/s 752 mmHg 46%
    08:00 +11°C° 0 mm 11 m/s 752 mmHg 43%
    09:00 +12°C° 0 mm 14 m/s 753 mmHg 41%
    10:00 +12°C° 0 mm 14 m/s 753 mmHg 36%
    11:00 +13°C° 0 mm 15 m/s 753 mmHg 31%
    12:00 +14°C° 0 mm 16 m/s 753 mmHg 27%
    13:00 +14°C° 0 mm 16 m/s 754 mmHg 25%
    14:00 +13°C° 0 mm 16 m/s 754 mmHg 23%
    15:00 +13°C° 0 mm 15 m/s 754 mmHg 22%
    16:00 +11°C° 0 mm 15 m/s 755 mmHg 24%
    17:00 +10°C° 0 mm 15 m/s 757 mmHg 25%
    18:00 +9°C° 0 mm 14 m/s 758 mmHg 27%
    19:00 +9°C° 0 mm 12 m/s 759 mmHg 28%
    20:00 +8°C° 0 mm 10 m/s 760 mmHg 30%
    21:00 +9°C° 0 mm 7 m/s 761 mmHg 31%
    22:00 +8°C° 0 mm 7 m/s 761 mmHg 34%
    23:00 +7°C° 0 mm 6 m/s 762 mmHg 38%

    Depois de amanhã, 26 Fevereiro, Quarta-feira

    Tempo Temperatura Precipitação Vento Pressão Humidade
    00:00 +6°C° 0 mm 5 m/s 762 mmHg 41%
    01:00 +6°C° 0 mm 4 m/s 762 mmHg 49%
    02:00 +5°C° 0 mm 4 m/s 763 mmHg 56%
    03:00 +5°C° 0 mm 3 m/s 763 mmHg 64%
    04:00 +4°C° 0 mm 3 m/s 763 mmHg 62%
    05:00 +4°C° 0 mm 3 m/s 764 mmHg 60%
    06:00 +4°C° 0 mm 2 m/s 764 mmHg 58%
    07:00 +5°C° 0 mm 2 m/s 764 mmHg 56%
    08:00 +7°C° 0 mm 2 m/s 765 mmHg 54%
    09:00 +8°C° 0 mm 3 m/s 765 mmHg 52%
    10:00 +9°C° 0 mm 2 m/s 765 mmHg 47%
    11:00 +10°C° 0 mm 2 m/s 765 mmHg 43%
    12:00 +12°C° 0 mm 2 m/s 765 mmHg 39%
    13:00 +12°C° 0 mm 2 m/s 764 mmHg 37%
    14:00 +13°C° 0 mm 2 m/s 764 mmHg 35%
    15:00 +13°C° 0 mm 2 m/s 764 mmHg 34%
    16:00 +13°C° 0 mm 2 m/s 764 mmHg 36%
    17:00 +12°C° 0 mm 2 m/s 764 mmHg 39%
    18:00 +10°C° 0 mm 2 m/s 764 mmHg 41%
    19:00 +10°C° 0 mm 1 m/s 764 mmHg 42%
    20:00 +10°C° 0 mm 1 m/s 764 mmHg 43%
    21:00 +8°C° 0 mm 0 m/s 765 mmHg 45%
    22:00 +9°C° 0 mm 1 m/s 764 mmHg 46%
    23:00 +8°C° 0 mm 1 m/s 764 mmHg 47%

    27 Fevereiro, Quinta-feira

    Tempo Temperatura Precipitação Vento Pressão Humidade
    00:00 +8°C° 0 mm 1 m/s 764 mmHg 48%
    01:00 +8°C° 0 mm 1 m/s 764 mmHg 48%
    02:00 +7°C° 0 mm 1 m/s 763 mmHg 48%
    03:00 +7°C° 0 mm 1 m/s 763 mmHg 48%
    04:00 +7°C° 0 mm 1 m/s 763 mmHg 48%
    05:00 +6°C° 0 mm 1 m/s 763 mmHg 49%
    06:00 +6°C° 0 mm 1 m/s 763 mmHg 50%
    07:00 +7°C° 0 mm 1 m/s 763 mmHg 46%
    08:00 +9°C° 0 mm 1 m/s 763 mmHg 43%
    09:00 +10°C° 0 mm 1 m/s 763 mmHg 40%
    10:00 +11°C° 0 mm 1 m/s 763 mmHg 36%
    11:00 +12°C° 0 mm 1 m/s 762 mmHg 33%
    12:00 +14°C° 0 mm 1 m/s 762 mmHg 30%
    13:00 +14°C° 0 mm 1 m/s 761 mmHg 29%
    14:00 +15°C° 0 mm 1 m/s 761 mmHg 28%
    15:00 +16°C° 0 mm 1 m/s 760 mmHg 27%
    16:00 +15°C° 0 mm 1 m/s 760 mmHg 29%
    17:00 +14°C° 0 mm 1 m/s 760 mmHg 32%
    18:00 +13°C° 0 mm 1 m/s 760 mmHg 34%
    19:00 +12°C° 0 mm 1 m/s 760 mmHg 37%
    20:00 +12°C° 0 mm 1 m/s 760 mmHg 40%
    21:00 +11°C° 0 mm 1 m/s 760 mmHg 43%
    22:00 +10°C° 0 mm 1 m/s 760 mmHg 49%
    23:00 +9°C° 0 mm 2 m/s 760 mmHg 54%

    28 Fevereiro, Sexta-feira

    Tempo Temperatura Precipitação Vento Pressão Humidade
    00:00 +8°C° 0 mm 2 m/s 759 mmHg 60%
    01:00 +7°C° 0 mm 2 m/s 759 mmHg 66%
    02:00 +8°C° 0 mm 1 m/s 758 mmHg 72%
    03:00 +7°C° 0 mm 1 m/s 758 mmHg 78%
    04:00 +7°C° 0 mm 1 m/s 757 mmHg 80%
    05:00 +6°C° 0 mm 1 m/s 757 mmHg 82%
    06:00 +5°C° 0 mm 0 m/s 756 mmHg 84%
    07:00 +6°C° 0 mm 0 m/s 756 mmHg 78%
    08:00 +8°C° 0 mm 0 m/s 755 mmHg 71%
    09:00 +9°C° 0 mm 0 m/s 755 mmHg 65%
    10:00 +11°C° 0 mm 1 m/s 754 mmHg 56%
    11:00 +13°C° 0 mm 1 m/s 754 mmHg 48%
    12:00 +15°C° 0 mm 2 m/s 753 mmHg 39%
    13:00 +16°C° 0 mm 2 m/s 753 mmHg 35%
    14:00 +17°C° 0 mm 2 m/s 752 mmHg 31%
    15:00 +18°C° 0 mm 2 m/s 752 mmHg 27%
    16:00 +17°C° 0 mm 2 m/s 752 mmHg 29%
    17:00 +15°C° 0 mm 1 m/s 752 mmHg 31%
    18:00 +14°C° 0 mm 1 m/s 752 mmHg 33%
    19:00 +14°C° 0 mm 1 m/s 752 mmHg 35%
    20:00 +12°C° 0 mm 0 m/s 752 mmHg 36%
    21:00 +12°C° 0 mm 0 m/s 753 mmHg 38%
    22:00 +12°C° 0 mm 0 m/s 753 mmHg 39%
    23:00 +12°C° 0 mm 0 m/s 753 mmHg 39%

    29 Fevereiro, Sábado

    Tempo Temperatura Precipitação Vento Pressão Humidade
    00:00 +11°C° 0 mm 0 m/s 753 mmHg 40%
    01:00 +12°C° 0 mm 1 m/s 753 mmHg 40%
    02:00 +12°C° 0 mm 1 m/s 753 mmHg 40%
    03:00 +12°C° 0 mm 2 m/s 753 mmHg 39%
    04:00 +12°C° 0 mm 2 m/s 753 mmHg 43%
    05:00 +10°C° 0 mm 3 m/s 753 mmHg 46%
    06:00 +10°C° 0 mm 4 m/s 754 mmHg 49%
    07:00 +10°C° 0 mm 5 m/s 754 mmHg 47%
    08:00 +11°C° 0 mm 6 m/s 754 mmHg 45%
    09:00 +13°C° 0 mm 6 m/s 754 mmHg 43%
    10:00 +14°C° 0 mm 6 m/s 754 mmHg 40%
    11:00 +15°C° 0 mm 6 m/s 754 mmHg 36%
    12:00 +16°C° 0 mm 6 m/s 754 mmHg 33%
    13:00 +16°C° 0 mm 6 m/s 754 mmHg 32%
    14:00 +16°C° 0 mm 7 m/s 754 mmHg 32%
    15:00 +16°C° 0 mm 7 m/s 754 mmHg 31%
    16:00 +13°C° 0 mm 8 m/s 755 mmHg 38%
    17:00 +11°C° 0 mm 10 m/s 756 mmHg 45%
    18:00 +8°C° 0 mm 11 m/s 756 mmHg 52%
    19:00 +8°C° 0.1 mm 10 m/s 757 mmHg 53%
    20:00 +7°C° 0.1 mm 9 m/s 758 mmHg 55%
    21:00 +7°C° 0.1 mm 8 m/s 759 mmHg 56%
    22:00 +8°C° 0 mm 7 m/s 759 mmHg 55%
    23:00 +6°C° 0 mm 7 m/s 760 mmHg 54%
    Mostrar mais